Location: ????????
(54.6123°N, 39.2099°E)
Time: 11:33:06
(UTC+00:00)

Cosmos 2084 Rocket - Pass Details

Date: 19 May 2025
Orbit: 542 x 579 km, 62.8° (Epoch: 13 June)

Event Time Altitude Azimuth Distance (km) Brightness Sun altitude
Rises 20:19:23 0° 239° (WSW) 2,783 6.7 -14.3°
Reaches altitude 10° 20:21:39 10° 242° (WSW) 1,883 5.9 -14.4°
Maximum altitude 20:25:53 68° 325° (NW) 621 3.7 -14.5°
Drops below altitude 10° 20:30:05 10° 49° (NE) 1,871 6.4 -14.7°
Sets 20:32:19 0° 52° (NE) 2,763 7.3 -14.7°
